{"data":{"norad_id":67195,"epoch":"2026-09-20T15:44:41.745408Z","epoch_age_seconds":65539,"freshness":"FRESH","line1":"1 67195U 25304D   26263.65603872 -.00000540  00000+0 -37452-4 0  9993","line2":"2 67195  70.0004  43.0786 0003095 271.5506  88.5298 14.98322895 43088","mean_motion":14.98322895,"eccentricity":0.0003095,"inclination_deg":70.0004,"raan_deg":43.0786,"arg_perigee_deg":271.5506,"mean_anomaly_deg":88.5298,"bstar":-3.7452e-5,"rev_number":4308,"period_min":96.107454862058,"perigee_km":569.92677115765,"apogee_km":574.22895415764,"semimajor_km":6950.2148626576,"source":"CELESTRAK","updated_at":"2026-09-21T09:00:36.135709Z"}}